Location: Dresden
(51.0500°N, 13.7500°E)
Time: 06:33:35
(UTC+00:00)

ISS - Pass Details

Date: 01 April 2019
Orbit: 408 x 410 km, 51.6° (Epoch: 24 April)

Event Time Altitude Azimuth Distance (km) Brightness Sun altitude
Rises 19:46:07 0° 285° (WNW) 2,340 1.3 -19.5°
Reaches altitude 10° 19:48:14 10° 279° (W) 1,476 -0.1 -19.8°
Enters shadow 19:51:09 45° 223° (SW) 567 -3.1 -20.1°
